owner,sensor,date,latitude,longitude,sea_surface_height_above_sea_level,qcFlag 
TCOON,ioos:station:TCOON:057:1,2015-01-01T00:42:00Z,28.4460,-96.3961,3.76,1111122 
TCOON,ioos:station:TCOON:057:1,2015-01-01T01:42:00Z,28.4460,-96.3961,3.746,1111122 
TCOON,ioos:station:TCOON:057:1,2015-01-01T02:48:00Z,28.4460,-96.3961,3.748,1111122 
TCOON,ioos:station:TCOON:057:1,2015-01-01T03:42:00Z,28.4460,-96.3961,3.753,1111122 
TCOON,ioos:station:TCOON:057:1,2015-01-01T04:42:00Z,28.4460,-96.3961,3.753,1111122 
TCOON,ioos:station:TCOON:057:1,2015-01-01T05:42:00Z,28.4460,-96.3961,3.783,1111122 
TCOON,ioos:station:TCOON:057:1,2015-01-01T06:42:00Z,28.4460,-96.3961,3.753,1111122 
TCOON,ioos:station:TCOON:057:1,2015-01-01T07:54:00Z,28.4460,-96.3961,3.738,1111122 
TCOON,ioos:station:TCOON:057:1,2015-01-01T08:36:00Z,28.4460,-96.3961,3.729,1111122 
TCOON,ioos:station:TCOON:057:1,2015-01-01T09:42:00Z,28.4460,-96.3961,3.678,1111122 
TCOON,ioos:station:TCOON:057:1,2015-01-01T10:36:00Z,28.4460,-96.3961,3.67,1111122 
TCOON,ioos:station:TCOON:057:1,2015-01-01T11:54:00Z,28.4460,-96.3961,3.621,1111122 
TCOON,ioos:station:TCOON:057:1,2015-01-01T12:48:00Z,28.4460,-96.3961,3.591,1111122 
TCOON,ioos:station:TCOON:057:1,2015-01-01T13:48:00Z,28.4460,-96.3961,3.579,1111122 
TCOON,ioos:station:TCOON:057:1,2015-01-01T14:48:00Z,28.4460,-96.3961,3.579,1111122 
TCOON,ioos:station:TCOON:057:1,2015-01-01T15:54:00Z,28.4460,-96.3961,3.592,1111122 
TCOON,ioos:station:TCOON:057:1,2015-01-01T16:54:00Z,28.4460,-96.3961,3.622,1111122 
TCOON,ioos:station:TCOON:057:1,2015-01-01T17:42:00Z,28.4460,-96.3961,3.639,1111122 
TCOON,ioos:station:TCOON:057:1,2015-01-01T18:48:00Z,28.4460,-96.3961,3.659,1111122 
TCOON,ioos:station:TCOON:057:1,2015-01-01T19:48:00Z,28.4460,-96.3961,3.701,1111122 
TCOON,ioos:station:TCOON:057:1,2015-01-01T20:42:00Z,28.4460,-96.3961,3.733,1111122 
TCOON,ioos:station:TCOON:057:1,2015-01-01T21:48:00Z,28.4460,-96.3961,3.765,1111122 
TCOON,ioos:station:TCOON:057:1,2015-01-01T22:48:00Z,28.4460,-96.3961,3.814,1111122 
TCOON,ioos:station:TCOON:057:1,2015-01-01T23:48:00Z,28.4460,-96.3961,3.824,1111122 
TCOON,ioos:station:TCOON:057:1,2015-01-02T00:36:00Z,28.4460,-96.3961,3.846,1111122 
TCOON,ioos:station:TCOON:057:1,2015-01-02T01:48:00Z,28.4460,-96.3961,3.861,1111122 
TCOON,ioos:station:TCOON:057:1,2015-01-02T02:48:00Z,28.4460,-96.3961,3.857,1111122 
TCOON,ioos:station:TCOON:057:1,2015-01-02T03:36:00Z,28.4460,-96.3961,3.839,1111122 
TCOON,ioos:station:TCOON:057:1,2015-01-02T04:42:00Z,28.4460,-96.3961,3.843,1111122 
TCOON,ioos:station:TCOON:057:1,2015-01-02T05:48:00Z,28.4460,-96.3961,3.85,1111122 
TCOON,ioos:station:TCOON:057:1,2015-01-02T07:18:00Z,28.4460,-96.3961,3.829,1111122 
TCOON,ioos:station:TCOON:057:1,2015-01-02T08:48:00Z,28.4460,-96.3961,3.785,1111122 
TCOON,ioos:station:TCOON:057:1,2015-01-02T09:42:00Z,28.4460,-96.3961,3.761,1111122 
TCOON,ioos:station:TCOON:057:1,2015-01-02T10:42:00Z,28.4460,-96.3961,3.721,1111122 
TCOON,ioos:station:TCOON:057:1,2015-01-02T11:42:00Z,28.4460,-96.3961,3.693,1111122 
TCOON,ioos:station:TCOON:057:1,2015-01-02T12:36:00Z,28.4460,-96.3961,3.67,1111122 
TCOON,ioos:station:TCOON:057:1,2015-01-02T13:36:00Z,28.4460,-96.3961,3.62,1111122 
TCOON,ioos:station:TCOON:057:1,2015-01-02T14:42:00Z,28.4460,-96.3961,3.584,1111122 
TCOON,ioos:station:TCOON:057:1,2015-01-02T15:48:00Z,28.4460,-96.3961,3.548,1111122 
TCOON,ioos:station:TCOON:057:1,2015-01-02T16:42:00Z,28.4460,-96.3961,3.581,1111122 
TCOON,ioos:station:TCOON:057:1,2015-01-02T17:48:00Z,28.4460,-96.3961,3.599,1111122 
TCOON,ioos:station:TCOON:057:1,2015-01-02T18:48:00Z,28.4460,-96.3961,3.642,1111122 
TCOON,ioos:station:TCOON:057:1,2015-01-02T19:42:00Z,28.4460,-96.3961,3.669,1111122 
TCOON,ioos:station:TCOON:057:1,2015-01-02T20:54:00Z,28.4460,-96.3961,3.712,1111122 
TCOON,ioos:station:TCOON:057:1,2015-01-02T21:48:00Z,28.4460,-96.3961,3.749,1111122 
TCOON,ioos:station:TCOON:057:1,2015-01-02T22:48:00Z,28.4460,-96.3961,3.775,1111122 
TCOON,ioos:station:TCOON:057:1,2015-01-02T23:48:00Z,28.4460,-96.3961,3.792,1111122 
TCOON,ioos:station:TCOON:057:1,2015-01-03T00:48:00Z,28.4460,-96.3961,3.801,1111122 
TCOON,ioos:station:TCOON:057:1,2015-01-03T01:36:00Z,28.4460,-96.3961,3.805,1111122 
TCOON,ioos:station:TCOON:057:1,2015-01-03T03:00:00Z,28.4460,-96.3961,3.81,1111122 
TCOON,ioos:station:TCOON:057:1,2015-01-03T03:54:00Z,28.4460,-96.3961,3.792,1111122 
TCOON,ioos:station:TCOON:057:1,2015-01-03T04:42:00Z,28.4460,-96.3961,3.787,1111122 
TCOON,ioos:station:TCOON:057:1,2015-01-03T05:42:00Z,28.4460,-96.3961,3.784,1111122 
TCOON,ioos:station:TCOON:057:1,2015-01-03T06:54:00Z,28.4460,-96.3961,3.754,1111122 
TCOON,ioos:station:TCOON:057:1,2015-01-03T07:48:00Z,28.4460,-96.3961,3.72,1111122 
TCOON,ioos:station:TCOON:057:1,2015-01-03T08:36:00Z,28.4460,-96.3961,3.697,1111122 
TCOON,ioos:station:TCOON:057:1,2015-01-03T09:42:00Z,28.4460,-96.3961,3.669,1111122 
TCOON,ioos:station:TCOON:057:1,2015-01-03T10:42:00Z,28.4460,-96.3961,3.631,1111122 
TCOON,ioos:station:TCOON:057:1,2015-01-03T11:36:00Z,28.4460,-96.3961,3.584,1111122 
TCOON,ioos:station:TCOON:057:1,2015-01-03T12:42:00Z,28.4460,-96.3961,3.541,1111122 
TCOON,ioos:station:TCOON:057:1,2015-01-03T13:42:00Z,28.4460,-96.3961,3.514,1111122 
TCOON,ioos:station:TCOON:057:1,2015-01-03T14:42:00Z,28.4460,-96.3961,3.487,1111122 
TCOON,ioos:station:TCOON:057:1,2015-01-03T15:42:00Z,28.4460,-96.3961,3.459,1111122 
TCOON,ioos:station:TCOON:057:1,2015-01-03T16:48:00Z,28.4460,-96.3961,3.45,1111122 
TCOON,ioos:station:TCOON:057:1,2015-01-03T17:48:00Z,28.4460,-96.3961,3.474,1111122 
TCOON,ioos:station:TCOON:057:1,2015-01-03T19:42:00Z,28.4460,-96.3961,3.542,1111122 
TCOON,ioos:station:TCOON:057:1,2015-01-03T20:42:00Z,28.4460,-96.3961,3.566,1111122 
TCOON,ioos:station:TCOON:057:1,2015-01-03T21:48:00Z,28.4460,-96.3961,3.603,1111122 
TCOON,ioos:station:TCOON:057:1,2015-01-03T22:42:00Z,28.4460,-96.3961,3.651,1111122 
TCOON,ioos:station:TCOON:057:1,2015-01-03T23:42:00Z,28.4460,-96.3961,3.658,1111122 
TCOON,ioos:station:TCOON:057:1,2015-01-04T00:42:00Z,28.4460,-96.3961,3.696,1111122 
TCOON,ioos:station:TCOON:057:1,2015-01-04T01:48:00Z,28.4460,-96.3961,3.717,1111122 
TCOON,ioos:station:TCOON:057:1,2015-01-04T02:42:00Z,28.4460,-96.3961,3.727,1111122 
TCOON,ioos:station:TCOON:057:1,2015-01-04T03:48:00Z,28.4460,-96.3961,3.743,1111122 
TCOON,ioos:station:TCOON:057:1,2015-01-04T04:48:00Z,28.4460,-96.3961,3.748,1111122 
TCOON,ioos:station:TCOON:057:1,2015-01-04T05:42:00Z,28.4460,-96.3961,3.749,1111122 
TCOON,ioos:station:TCOON:057:1,2015-01-04T07:18:00Z,28.4460,-96.3961,3.735,1111122 
TCOON,ioos:station:TCOON:057:1,2015-01-04T08:42:00Z,28.4460,-96.3961,3.684,1111122 
TCOON,ioos:station:TCOON:057:1,2015-01-04T09:42:00Z,28.4460,-96.3961,3.665,1111122 
TCOON,ioos:station:TCOON:057:1,2015-01-04T10:48:00Z,28.4460,-96.3961,3.623,1111122 
TCOON,ioos:station:TCOON:057:1,2015-01-04T11:42:00Z,28.4460,-96.3961,3.581,1111122 
TCOON,ioos:station:TCOON:057:1,2015-01-04T12:48:00Z,28.4460,-96.3961,3.555,1111122 
TCOON,ioos:station:TCOON:057:1,2015-01-04T13:42:00Z,28.4460,-96.3961,3.521,1111122 
TCOON,ioos:station:TCOON:057:1,2015-01-04T14:42:00Z,28.4460,-96.3961,3.496,1111122 
TCOON,ioos:station:TCOON:057:1,2015-01-04T15:42:00Z,28.4460,-96.3961,3.468,1111122 
TCOON,ioos:station:TCOON:057:1,2015-01-04T16:36:00Z,28.4460,-96.3961,3.432,1111122 
TCOON,ioos:station:TCOON:057:1,2015-01-04T17:48:00Z,28.4460,-96.3961,3.419,1111122 
TCOON,ioos:station:TCOON:057:1,2015-01-04T18:42:00Z,28.4460,-96.3961,3.406,1111122 
TCOON,ioos:station:TCOON:057:1,2015-01-04T19:36:00Z,28.4460,-96.3961,3.397,1111122 
TCOON,ioos:station:TCOON:057:1,2015-01-04T20:48:00Z,28.4460,-96.3961,3.411,1111122 
TCOON,ioos:station:TCOON:057:1,2015-01-04T21:48:00Z,28.4460,-96.3961,3.449,1111122 
TCOON,ioos:station:TCOON:057:1,2015-01-04T22:48:00Z,28.4460,-96.3961,3.464,1111122 
TCOON,ioos:station:TCOON:057:1,2015-01-04T23:42:00Z,28.4460,-96.3961,3.502,1111122 
TCOON,ioos:station:TCOON:057:1,2015-01-05T00:42:00Z,28.4460,-96.3961,3.518,1111122 
TCOON,ioos:station:TCOON:057:1,2015-01-05T01:42:00Z,28.4460,-96.3961,3.566,1111122 
TCOON,ioos:station:TCOON:057:1,2015-01-05T02:48:00Z,28.4460,-96.3961,3.557,1111122 
TCOON,ioos:station:TCOON:057:1,2015-01-05T03:36:00Z,28.4460,-96.3961,3.552,1111122 
TCOON,ioos:station:TCOON:057:1,2015-01-05T04:48:00Z,28.4460,-96.3961,3.519,1111122 
TCOON,ioos:station:TCOON:057:1,2015-01-05T05:42:00Z,28.4460,-96.3961,3.523,1111122 
TCOON,ioos:station:TCOON:057:1,2015-01-05T06:54:00Z,28.4460,-96.3961,3.522,1111122 
TCOON,ioos:station:TCOON:057:1,2015-01-05T07:42:00Z,28.4460,-96.3961,3.496,1111122 
TCOON,ioos:station:TCOON:057:1,2015-01-05T08:12:00Z,28.4460,-96.3961,3.477,1111122 
TCOON,ioos:station:TCOON:057:1,2015-01-05T09:12:00Z,28.4460,-96.3961,3.447,1111122 
TCOON,ioos:station:TCOON:057:1,2015-01-05T10:12:00Z,28.4460,-96.3961,3.433,1111122 
TCOON,ioos:station:TCOON:057:1,2015-01-05T11:12:00Z,28.4460,-96.3961,3.391,1111122 
TCOON,ioos:station:TCOON:057:1,2015-01-05T12:12:00Z,28.4460,-96.3961,3.352,1111122 
TCOON,ioos:station:TCOON:057:1,2015-01-05T13:12:00Z,28.4460,-96.3961,3.32,1111122 
TCOON,ioos:station:TCOON:057:1,2015-01-05T14:18:00Z,28.4460,-96.3961,3.291,1111122 
TCOON,ioos:station:TCOON:057:1,2015-01-05T15:12:00Z,28.4460,-96.3961,3.284,1111122 
TCOON,ioos:station:TCOON:057:1,2015-01-05T16:18:00Z,28.4460,-96.3961,3.253,1111122 
TCOON,ioos:station:TCOON:057:1,2015-01-05T17:12:00Z,28.4460,-96.3961,3.253,1111122 
TCOON,ioos:station:TCOON:057:1,2015-01-05T18:18:00Z,28.4460,-96.3961,3.228,1111122 
TCOON,ioos:station:TCOON:057:1,2015-01-05T19:18:00Z,28.4460,-96.3961,3.278,1111122 
TCOON,ioos:station:TCOON:057:1,2015-01-05T20:18:00Z,28.4460,-96.3961,3.306,1111122 
TCOON,ioos:station:TCOON:057:1,2015-01-05T21:18:00Z,28.4460,-96.3961,3.363,1111122 
TCOON,ioos:station:TCOON:057:1,2015-01-05T22:18:00Z,28.4460,-96.3961,3.416,1111122 
TCOON,ioos:station:TCOON:057:1,2015-01-05T23:18:00Z,28.4460,-96.3961,3.454,1111122 
TCOON,ioos:station:TCOON:057:1,2015-01-06T00:12:00Z,28.4460,-96.3961,3.482,1111122 
TCOON,ioos:station:TCOON:057:1,2015-01-06T01:18:00Z,28.4460,-96.3961,3.527,1111122 
TCOON,ioos:station:TCOON:057:1,2015-01-06T02:18:00Z,28.4460,-96.3961,3.564,1111122 
TCOON,ioos:station:TCOON:057:1,2015-01-06T03:12:00Z,28.4460,-96.3961,3.579,1111122 
TCOON,ioos:station:TCOON:057:1,2015-01-06T04:18:00Z,28.4460,-96.3961,3.597,1111122 
TCOON,ioos:station:TCOON:057:1,2015-01-06T05:12:00Z,28.4460,-96.3961,3.602,1111122 
TCOON,ioos:station:TCOON:057:1,2015-01-06T06:18:00Z,28.4460,-96.3961,3.607,1111122 
TCOON,ioos:station:TCOON:057:1,2015-01-06T07:12:00Z,28.4460,-96.3961,3.614,1111122 
TCOON,ioos:station:TCOON:057:1,2015-01-06T08:12:00Z,28.4460,-96.3961,3.595,1111122 
TCOON,ioos:station:TCOON:057:1,2015-01-06T09:18:00Z,28.4460,-96.3961,3.595,1111122 
TCOON,ioos:station:TCOON:057:1,2015-01-06T10:12:00Z,28.4460,-96.3961,3.577,1111122 
TCOON,ioos:station:TCOON:057:1,2015-01-06T11:12:00Z,28.4460,-96.3961,3.548,1111122 
TCOON,ioos:station:TCOON:057:1,2015-01-06T12:12:00Z,28.4460,-96.3961,3.518,1111122 
TCOON,ioos:station:TCOON:057:1,2015-01-06T13:12:00Z,28.4460,-96.3961,3.468,1111122 
TCOON,ioos:station:TCOON:057:1,2015-01-06T14:12:00Z,28.4460,-96.3961,3.449,1111122 
TCOON,ioos:station:TCOON:057:1,2015-01-06T15:12:00Z,28.4460,-96.3961,3.415,1111122 
TCOON,ioos:station:TCOON:057:1,2015-01-06T16:18:00Z,28.4460,-96.3961,3.381,1111122 
TCOON,ioos:station:TCOON:057:1,2015-01-06T17:12:00Z,28.4460,-96.3961,3.35,1111122 
TCOON,ioos:station:TCOON:057:1,2015-01-06T18:12:00Z,28.4460,-96.3961,3.327,1111122 
TCOON,ioos:station:TCOON:057:1,2015-01-06T19:12:00Z,28.4460,-96.3961,3.349,1111122 
TCOON,ioos:station:TCOON:057:1,2015-01-06T20:18:00Z,28.4460,-96.3961,3.359,1111122 
TCOON,ioos:station:TCOON:057:1,2015-01-06T21:12:00Z,28.4460,-96.3961,3.383,1111122 
TCOON,ioos:station:TCOON:057:1,2015-01-06T22:18:00Z,28.4460,-96.3961,3.43,1111122 
TCOON,ioos:station:TCOON:057:1,2015-01-06T23:18:00Z,28.4460,-96.3961,3.45,1111122 
TCOON,ioos:station:TCOON:057:1,2015-01-07T00:12:00Z,28.4460,-96.3961,3.484,1111122 
TCOON,ioos:station:TCOON:057:1,2015-01-07T01:18:00Z,28.4460,-96.3961,3.512,1111122 
TCOON,ioos:station:TCOON:057:1,2015-01-07T02:18:00Z,28.4460,-96.3961,3.549,1111122 
TCOON,ioos:station:TCOON:057:1,2015-01-07T03:18:00Z,28.4460,-96.3961,3.564,1111122 
TCOON,ioos:station:TCOON:057:1,2015-01-07T04:18:00Z,28.4460,-96.3961,3.592,1111122 
TCOON,ioos:station:TCOON:057:1,2015-01-07T05:12:00Z,28.4460,-96.3961,3.606,1111122 
TCOON,ioos:station:TCOON:057:1,2015-01-07T06:24:00Z,28.4460,-96.3961,3.607,1111122 
TCOON,ioos:station:TCOON:057:1,2015-01-07T07:12:00Z,28.4460,-96.3961,3.615,1111122 
TCOON,ioos:station:TCOON:057:1,2015-01-07T08:12:00Z,28.4460,-96.3961,3.617,1111122 
TCOON,ioos:station:TCOON:057:1,2015-01-07T09:12:00Z,28.4460,-96.3961,3.613,1111122 
TCOON,ioos:station:TCOON:057:1,2015-01-07T10:12:00Z,28.4460,-96.3961,3.613,1111122 
TCOON,ioos:station:TCOON:057:1,2015-01-07T11:12:00Z,28.4460,-96.3961,3.586,1111122 
TCOON,ioos:station:TCOON:057:1,2015-01-07T12:12:00Z,28.4460,-96.3961,3.547,1111122 
TCOON,ioos:station:TCOON:057:1,2015-01-07T13:12:00Z,28.4460,-96.3961,3.521,1111122 
TCOON,ioos:station:TCOON:057:1,2015-01-07T14:24:00Z,28.4460,-96.3961,3.485,1111122 
TCOON,ioos:station:TCOON:057:1,2015-01-07T15:12:00Z,28.4460,-96.3961,3.465,1111122 
TCOON,ioos:station:TCOON:057:1,2015-01-07T16:12:00Z,28.4460,-96.3961,3.428,1111122 
TCOON,ioos:station:TCOON:057:1,2015-01-07T17:18:00Z,28.4460,-96.3961,3.392,1111122 
TCOON,ioos:station:TCOON:057:1,2015-01-07T18:12:00Z,28.4460,-96.3961,3.37,1111122 
TCOON,ioos:station:TCOON:057:1,2015-01-07T19:18:00Z,28.4460,-96.3961,3.381,1111122 
TCOON,ioos:station:TCOON:057:1,2015-01-07T20:18:00Z,28.4460,-96.3961,3.407,1111122 
TCOON,ioos:station:TCOON:057:1,2015-01-07T21:12:00Z,28.4460,-96.3961,3.44,1111122 
TCOON,ioos:station:TCOON:057:1,2015-01-07T22:18:00Z,28.4460,-96.3961,3.503,1111122 
TCOON,ioos:station:TCOON:057:1,2015-01-07T23:12:00Z,28.4460,-96.3961,3.454,1111122 
TCOON,ioos:station:TCOON:057:1,2015-01-08T00:12:00Z,28.4460,-96.3961,3.454,1111122 
TCOON,ioos:station:TCOON:057:1,2015-01-08T01:18:00Z,28.4460,-96.3961,3.506,1111122 
TCOON,ioos:station:TCOON:057:1,2015-01-08T02:18:00Z,28.4460,-96.3961,3.582,1111122 
TCOON,ioos:station:TCOON:057:1,2015-01-08T03:12:00Z,28.4460,-96.3961,3.632,1111122 
TCOON,ioos:station:TCOON:057:1,2015-01-08T04:18:00Z,28.4460,-96.3961,3.557,1111122 
TCOON,ioos:station:TCOON:057:1,2015-01-08T05:18:00Z,28.4460,-96.3961,3.538,1111122 
TCOON,ioos:station:TCOON:057:1,2015-01-08T07:00:00Z,28.4460,-96.3961,3.53,1111122 
TCOON,ioos:station:TCOON:057:1,2015-01-08T07:12:00Z,28.4460,-96.3961,3.536,1111122 
TCOON,ioos:station:TCOON:057:1,2015-01-08T08:12:00Z,28.4460,-96.3961,3.511,1111122 
TCOON,ioos:station:TCOON:057:1,2015-01-08T09:12:00Z,28.4460,-96.3961,3.511,1111122 
TCOON,ioos:station:TCOON:057:1,2015-01-08T10:12:00Z,28.4460,-96.3961,3.515,1111122 
TCOON,ioos:station:TCOON:057:1,2015-01-08T11:12:00Z,28.4460,-96.3961,3.481,1111122 
TCOON,ioos:station:TCOON:057:1,2015-01-08T12:18:00Z,28.4460,-96.3961,3.474,1111122 
TCOON,ioos:station:TCOON:057:1,2015-01-08T13:12:00Z,28.4460,-96.3961,3.441,1111122 
TCOON,ioos:station:TCOON:057:1,2015-01-08T14:12:00Z,28.4460,-96.3961,3.419,1111122 
TCOON,ioos:station:TCOON:057:1,2015-01-08T15:18:00Z,28.4460,-96.3961,3.381,1111122 
TCOON,ioos:station:TCOON:057:1,2015-01-08T16:18:00Z,28.4460,-96.3961,3.319,1111122 
TCOON,ioos:station:TCOON:057:1,2015-01-08T17:12:00Z,28.4460,-96.3961,3.309,1111122 
TCOON,ioos:station:TCOON:057:1,2015-01-08T18:12:00Z,28.4460,-96.3961,3.32,1111122 
TCOON,ioos:station:TCOON:057:1,2015-01-08T19:18:00Z,28.4460,-96.3961,3.324,1111122 
TCOON,ioos:station:TCOON:057:1,2015-01-08T20:12:00Z,28.4460,-96.3961,3.357,1111122 
TCOON,ioos:station:TCOON:057:1,2015-01-08T21:12:00Z,28.4460,-96.3961,3.395,1111122 
TCOON,ioos:station:TCOON:057:1,2015-01-08T22:12:00Z,28.4460,-96.3961,3.441,1111122 
TCOON,ioos:station:TCOON:057:1,2015-01-08T23:12:00Z,28.4460,-96.3961,3.474,1111122 
TCOON,ioos:station:TCOON:057:1,2015-01-09T00:18:00Z,28.4460,-96.3961,3.528,1111122 
TCOON,ioos:station:TCOON:057:1,2015-01-09T01:18:00Z,28.4460,-96.3961,3.572,1111122 
TCOON,ioos:station:TCOON:057:1,2015-01-09T02:18:00Z,28.4460,-96.3961,3.598,1111122 
TCOON,ioos:station:TCOON:057:1,2015-01-09T03:18:00Z,28.4460,-96.3961,3.624,1111122 
TCOON,ioos:station:TCOON:057:1,2015-01-09T04:18:00Z,28.4460,-96.3961,3.632,1111122 
TCOON,ioos:station:TCOON:057:1,2015-01-09T05:12:00Z,28.4460,-96.3961,3.662,1111122 
TCOON,ioos:station:TCOON:057:1,2015-01-09T06:54:00Z,28.4460,-96.3961,3.684,1111122 
TCOON,ioos:station:TCOON:057:1,2015-01-09T07:18:00Z,28.4460,-96.3961,3.686,1111122 
TCOON,ioos:station:TCOON:057:1,2015-01-09T08:18:00Z,28.4460,-96.3961,3.684,1111122 
TCOON,ioos:station:TCOON:057:1,2015-01-09T09:12:00Z,28.4460,-96.3961,3.695,1111122 
TCOON,ioos:station:TCOON:057:1,2015-01-09T10:12:00Z,28.4460,-96.3961,3.696,1111122 
TCOON,ioos:station:TCOON:057:1,2015-01-09T11:12:00Z,28.4460,-96.3961,3.684,1111122 
TCOON,ioos:station:TCOON:057:1,2015-01-09T12:12:00Z,28.4460,-96.3961,3.659,1111122 
TCOON,ioos:station:TCOON:057:1,2015-01-09T13:18:00Z,28.4460,-96.3961,3.644,1111122 
TCOON,ioos:station:TCOON:057:1,2015-01-09T14:12:00Z,28.4460,-96.3961,3.6,1111122 
TCOON,ioos:station:TCOON:057:1,2015-01-09T15:12:00Z,28.4460,-96.3961,3.606,1111122 
TCOON,ioos:station:TCOON:057:1,2015-01-09T16:12:00Z,28.4460,-96.3961,3.592,1111122 
TCOON,ioos:station:TCOON:057:1,2015-01-09T17:12:00Z,28.4460,-96.3961,3.547,1111122 
TCOON,ioos:station:TCOON:057:1,2015-01-09T18:12:00Z,28.4460,-96.3961,3.534,1111122 
TCOON,ioos:station:TCOON:057:1,2015-01-09T19:12:00Z,28.4460,-96.3961,3.521,1111122 
TCOON,ioos:station:TCOON:057:1,2015-01-09T20:12:00Z,28.4460,-96.3961,3.52,1111122 
TCOON,ioos:station:TCOON:057:1,2015-01-09T21:18:00Z,28.4460,-96.3961,3.533,1111122 
TCOON,ioos:station:TCOON:057:1,2015-01-09T22:18:00Z,28.4460,-96.3961,3.55,1111122 
TCOON,ioos:station:TCOON:057:1,2015-01-09T23:12:00Z,28.4460,-96.3961,3.56,1111122 
TCOON,ioos:station:TCOON:057:1,2015-01-10T00:18:00Z,28.4460,-96.3961,3.588,1111122 
TCOON,ioos:station:TCOON:057:1,2015-01-10T01:18:00Z,28.4460,-96.3961,3.632,1111122 
TCOON,ioos:station:TCOON:057:1,2015-01-10T02:18:00Z,28.4460,-96.3961,3.634,1111122 
TCOON,ioos:station:TCOON:057:1,2015-01-10T03:12:00Z,28.4460,-96.3961,3.658,1111122 
TCOON,ioos:station:TCOON:057:1,2015-01-10T04:18:00Z,28.4460,-96.3961,3.668,1111122 
TCOON,ioos:station:TCOON:057:1,2015-01-10T05:12:00Z,28.4460,-96.3961,3.654,1111122 
TCOON,ioos:station:TCOON:057:1,2015-01-10T06:18:00Z,28.4460,-96.3961,3.652,1111122 
TCOON,ioos:station:TCOON:057:1,2015-01-10T07:18:00Z,28.4460,-96.3961,3.624,1111122 
TCOON,ioos:station:TCOON:057:1,2015-01-10T08:18:00Z,28.4460,-96.3961,3.636,1111122 
TCOON,ioos:station:TCOON:057:1,2015-01-10T09:18:00Z,28.4460,-96.3961,3.639,1111122 
TCOON,ioos:station:TCOON:057:1,2015-01-10T10:12:00Z,28.4460,-96.3961,3.645,1111122 
TCOON,ioos:station:TCOON:057:1,2015-01-10T11:12:00Z,28.4460,-96.3961,3.634,1111122 
TCOON,ioos:station:TCOON:057:1,2015-01-10T12:12:00Z,28.4460,-96.3961,3.65,1111122 
TCOON,ioos:station:TCOON:057:1,2015-01-10T13:12:00Z,28.4460,-96.3961,3.661,1111122 
TCOON,ioos:station:TCOON:057:1,2015-01-10T14:12:00Z,28.4460,-96.3961,3.661,1111122 
TCOON,ioos:station:TCOON:057:1,2015-01-10T15:12:00Z,28.4460,-96.3961,3.622,1111122 
TCOON,ioos:station:TCOON:057:1,2015-01-10T16:12:00Z,28.4460,-96.3961,3.64,1111122 
TCOON,ioos:station:TCOON:057:1,2015-01-10T17:18:00Z,28.4460,-96.3961,3.649,1111122 
TCOON,ioos:station:TCOON:057:1,2015-01-10T18:12:00Z,28.4460,-96.3961,3.594,1111122 
TCOON,ioos:station:TCOON:057:1,2015-01-10T19:12:00Z,28.4460,-96.3961,3.593,1111122 
TCOON,ioos:station:TCOON:057:1,2015-01-10T20:12:00Z,28.4460,-96.3961,3.587,1111122 
TCOON,ioos:station:TCOON:057:1,2015-01-10T21:12:00Z,28.4460,-96.3961,3.663,1111122 
TCOON,ioos:station:TCOON:057:1,2015-01-10T22:18:00Z,28.4460,-96.3961,3.627,1111122 
TCOON,ioos:station:TCOON:057:1,2015-01-10T23:12:00Z,28.4460,-96.3961,3.679,1111122 
TCOON,ioos:station:TCOON:057:1,2015-01-11T00:12:00Z,28.4460,-96.3961,3.709,1111122 
TCOON,ioos:station:TCOON:057:1,2015-01-11T01:18:00Z,28.4460,-96.3961,3.725,1111122 
TCOON,ioos:station:TCOON:057:1,2015-01-11T02:18:00Z,28.4460,-96.3961,3.741,1111122 
TCOON,ioos:station:TCOON:057:1,2015-01-11T03:12:00Z,28.4460,-96.3961,3.746,1111122 
TCOON,ioos:station:TCOON:057:1,2015-01-11T04:18:00Z,28.4460,-96.3961,3.76,1111122 
TCOON,ioos:station:TCOON:057:1,2015-01-11T05:18:00Z,28.4460,-96.3961,3.768,1111122 
TCOON,ioos:station:TCOON:057:1,2015-01-11T06:18:00Z,28.4460,-96.3961,3.783,1111122 
TCOON,ioos:station:TCOON:057:1,2015-01-11T07:12:00Z,28.4460,-96.3961,3.762,1111122 
TCOON,ioos:station:TCOON:057:1,2015-01-11T08:12:00Z,28.4460,-96.3961,3.755,1111122 
TCOON,ioos:station:TCOON:057:1,2015-01-11T09:18:00Z,28.4460,-96.3961,3.763,1111122 
TCOON,ioos:station:TCOON:057:1,2015-01-11T10:12:00Z,28.4460,-96.3961,3.766,1111122 
TCOON,ioos:station:TCOON:057:1,2015-01-11T11:12:00Z,28.4460,-96.3961,3.77,1111122 
TCOON,ioos:station:TCOON:057:1,2015-01-11T12:12:00Z,28.4460,-96.3961,3.768,1111122 
TCOON,ioos:station:TCOON:057:1,2015-01-11T13:12:00Z,28.4460,-96.3961,3.729,1111122 
TCOON,ioos:station:TCOON:057:1,2015-01-11T14:12:00Z,28.4460,-96.3961,3.712,1111122 
TCOON,ioos:station:TCOON:057:1,2015-01-11T15:12:00Z,28.4460,-96.3961,3.726,1111122 
TCOON,ioos:station:TCOON:057:1,2015-01-11T16:12:00Z,28.4460,-96.3961,3.691,1111122 
TCOON,ioos:station:TCOON:057:1,2015-01-11T17:12:00Z,28.4460,-96.3961,3.682,1111122 
TCOON,ioos:station:TCOON:057:1,2015-01-11T18:12:00Z,28.4460,-96.3961,3.678,1111122 
TCOON,ioos:station:TCOON:057:1,2015-01-11T19:12:00Z,28.4460,-96.3961,3.665,1111122 
TCOON,ioos:station:TCOON:057:1,2015-01-11T20:18:00Z,28.4460,-96.3961,3.689,1111122 
TCOON,ioos:station:TCOON:057:1,2015-01-11T21:12:00Z,28.4460,-96.3961,3.695,1111122 
TCOON,ioos:station:TCOON:057:1,2015-01-11T22:18:00Z,28.4460,-96.3961,3.686,1111122 
TCOON,ioos:station:TCOON:057:1,2015-01-11T23:12:00Z,28.4460,-96.3961,3.709,1111122 
TCOON,ioos:station:TCOON:057:1,2015-01-12T00:18:00Z,28.4460,-96.3961,3.729,1111122 
TCOON,ioos:station:TCOON:057:1,2015-01-12T01:12:00Z,28.4460,-96.3961,3.746,1111122 
TCOON,ioos:station:TCOON:057:1,2015-01-12T02:18:00Z,28.4460,-96.3961,3.771,1111122 
TCOON,ioos:station:TCOON:057:1,2015-01-12T03:12:00Z,28.4460,-96.3961,3.783,1111122 
TCOON,ioos:station:TCOON:057:1,2015-01-12T04:18:00Z,28.4460,-96.3961,3.783,1111122 
TCOON,ioos:station:TCOON:057:1,2015-01-12T05:18:00Z,28.4460,-96.3961,3.769,1111122 
TCOON,ioos:station:TCOON:057:1,2015-01-12T06:18:00Z,28.4460,-96.3961,3.755,1111122 
TCOON,ioos:station:TCOON:057:1,2015-01-12T07:18:00Z,28.4460,-96.3961,3.735,1111122 
TCOON,ioos:station:TCOON:057:1,2015-01-12T08:18:00Z,28.4460,-96.3961,3.705,1111122 
TCOON,ioos:station:TCOON:057:1,2015-01-12T09:12:00Z,28.4460,-96.3961,3.687,1111122 
TCOON,ioos:station:TCOON:057:1,2015-01-12T10:12:00Z,28.4460,-96.3961,3.665,1111122 
TCOON,ioos:station:TCOON:057:1,2015-01-12T11:12:00Z,28.4460,-96.3961,3.639,1111122 
TCOON,ioos:station:TCOON:057:1,2015-01-12T12:12:00Z,28.4460,-96.3961,3.623,1111122 
TCOON,ioos:station:TCOON:057:1,2015-01-12T13:12:00Z,28.4460,-96.3961,3.609,1111122 
TCOON,ioos:station:TCOON:057:1,2015-01-12T14:12:00Z,28.4460,-96.3961,3.587,1111122 
TCOON,ioos:station:TCOON:057:1,2015-01-12T15:12:00Z,28.4460,-96.3961,3.561,1111122 
TCOON,ioos:station:TCOON:057:1,2015-01-12T16:12:00Z,28.4460,-96.3961,3.546,1111122 
TCOON,ioos:station:TCOON:057:1,2015-01-12T17:18:00Z,28.4460,-96.3961,3.54,1111122 
TCOON,ioos:station:TCOON:057:1,2015-01-12T18:18:00Z,28.4460,-96.3961,3.519,1111122 
TCOON,ioos:station:TCOON:057:1,2015-01-12T19:12:00Z,28.4460,-96.3961,3.521,1111122 
TCOON,ioos:station:TCOON:057:1,2015-01-12T20:12:00Z,28.4460,-96.3961,3.511,1111122 
TCOON,ioos:station:TCOON:057:1,2015-01-12T21:18:00Z,28.4460,-96.3961,3.505,1111122 
TCOON,ioos:station:TCOON:057:1,2015-01-12T22:18:00Z,28.4460,-96.3961,3.517,1111122 
TCOON,ioos:station:TCOON:057:1,2015-01-12T23:18:00Z,28.4460,-96.3961,3.52,1111122 